Zapata, TX

4:55 AM CDT on September 23, 2017 (GMT -0500)
Zapata

Weather History for KAPY - October, 2012

Change the Weather History Date:

Saturday, October 6, 2012

  Actual Average (KLRD) Record (KLRD)
Temperature  
Mean Temperature 80 °F -  
Max Temperature 95 °F 84 °F 101 °F (2009)
Min Temperature 64 °F 65 °F 42 °F (1932)
Cooling Degree Days 14    
Growing Degree Days 30 (Base 50)    
Moisture  
Dew Point 60 °F    
Average Humidity 59    
Maximum Humidity 96    
Minimum Humidity 21    
Precipitation  
Precipitation 0.00 in - - ()
Sea Level Pressure  
Sea Level Pressure 29.93 in    
Wind  
Wind Speed 6 mph (ESE)    
Max Wind Speed 16 mph    
Max Gust Speed 23 mph    
Visibility 10 miles    
Events      
Averages and records for this station are not official NWS values.
T = Trace of Precipitation, MM = Missing Value Source: NWS Daily Summary

Daily Weather History Graph

Daily Weather History Graph

Search for Another Location

Airport or City:

Trip Planner

Search our weather history database for the weather conditions in past years. The results will help you decide how hot, cold, wet, or windy it might be!

Date:

Astronomy

Oct. 06, 2012 Rise Set
Actual Time 7:32 AM CDT 7:17 PM CDT
Civil Twilight 7:08 AM CDT 7:40 PM CDT
Nautical Twilight 6:42 AM CDT 8:07 PM CDT
Astronomical Twilight 6:15 AM CDT 8:34 PM CDT
Moon 11:57 PM CDT (10/6) 1:03 PM CDT (10/6)
Length of Visible Light 12h 31m
Length of Day
11h 44m
Waning Gibbous, 65% of the Moon is Illuminated
Oct 6
Waning Gibbous
Oct 8
Last Quarter
Oct 15
New
Oct 21
First Quarter
Oct 29
Full

Hourly Weather History & Observations

Time (CDT) Temp. Heat Index Dew Point Humidity Pressure Visibility Wind Dir Wind Speed Gust Speed Precip Events Conditions
2:15 AM 72.3 °F - 63.5 °F 74% 29.96 in 10.0 mi Calm Calm - N/A   Clear
2:55 AM 70.9 °F - 63.5 °F 77% 29.95 in 10.0 mi SSE 5.8 mph - N/A   Clear
4:35 AM 68.4 °F - 63.7 °F 85% 29.92 in 10.0 mi SE 5.8 mph - N/A   Clear
4:55 AM 67.3 °F - 63.5 °F 88% 29.93 in 10.0 mi East 4.6 mph - N/A   Clear
5:15 AM 66.7 °F - 63.5 °F 89% 29.93 in 10.0 mi East 3.5 mph - N/A   Clear
5:35 AM 65.8 °F - 63.0 °F 90% 29.93 in 10.0 mi East 4.6 mph - N/A   Clear
5:55 AM 65.5 °F - 63.0 °F 92% 29.93 in 10.0 mi ESE 4.6 mph - N/A   Clear
6:15 AM 65.3 °F - 62.8 °F 92% 29.94 in 10.0 mi East 3.5 mph - N/A   Clear
6:35 AM 64.8 °F - 63.1 °F 94% 29.94 in 10.0 mi East 3.5 mph - N/A   Clear
7:15 AM 64.6 °F - 63.5 °F 96% 29.95 in 10.0 mi East 4.6 mph - N/A   Clear
7:35 AM 64.8 °F - 63.7 °F 96% 29.96 in 10.0 mi East 3.5 mph - N/A   Clear
7:55 AM 65.3 °F - 64.0 °F 96% 29.97 in 10.0 mi ENE 3.5 mph - N/A   Clear
8:15 AM 66.7 °F - 64.0 °F 91% 29.97 in 10.0 mi East 4.6 mph - N/A   Clear
8:35 AM 69.1 °F - 64.6 °F 86% 29.97 in 10.0 mi East 5.8 mph - N/A   Clear
9:15 AM 73.0 °F - 65.5 °F 77% 29.98 in 10.0 mi ESE 8.1 mph - N/A   Clear
10:15 AM 79.5 °F - 65.8 °F 63% 29.99 in 10.0 mi ESE 10.4 mph - N/A   Clear
10:55 AM 81.9 °F 83.5 °F 64.6 °F 56% 29.99 in 10.0 mi ESE 8.1 mph - N/A   Clear
11:35 AM 84.0 °F 84.5 °F 62.1 °F 47% 29.98 in 10.0 mi SE 6.9 mph - N/A   Clear
11:55 AM 85.6 °F 85.2 °F 59.7 °F 41% 29.98 in 10.0 mi SE 6.9 mph - N/A   Clear
12:55 PM 89.2 °F 87.5 °F 55.9 °F 32% 29.96 in 10.0 mi SE 4.6 mph - N/A   Clear
1:55 PM 91.8 °F 89.8 °F 55.2 °F 29% 29.92 in 10.0 mi SE 4.6 mph - N/A   Clear
2:15 PM 92.3 °F 89.9 °F 53.4 °F 27% 29.90 in 10.0 mi ESE 5.8 mph - N/A   Clear
4:15 PM 94.5 °F - 50.0 °F 22% 29.85 in 10.0 mi SSE 8.1 mph - N/A   Clear
4:35 PM 95.2 °F - 49.5 °F 21% 29.85 in 10.0 mi SE 9.2 mph - N/A   Clear
5:35 PM 93.9 °F - 49.3 °F 22% 29.85 in 10.0 mi ESE 6.9 mph - N/A   Clear
5:55 PM 93.6 °F - 49.3 °F 22% 29.84 in 10.0 mi SE 11.5 mph - N/A   Clear
6:15 PM 92.7 °F - 48.6 °F 22% 29.85 in 10.0 mi SE 6.9 mph - N/A   Clear
6:55 PM 90.7 °F - 50.0 °F 25% 29.86 in 10.0 mi ESE 8.1 mph - N/A   Clear
7:15 PM 89.1 °F - 50.9 °F 27% 29.86 in 10.0 mi ESE 6.9 mph - N/A   Clear
7:35 PM 86.5 °F - 51.8 °F 30% 29.87 in 10.0 mi ESE 5.8 mph - N/A   Clear
7:55 PM 85.1 °F - 52.0 °F 32% 29.87 in 10.0 mi East 4.6 mph - N/A   Clear
8:15 PM 84.4 °F - 52.2 °F 33% 29.89 in 10.0 mi East 5.8 mph - N/A   Clear
8:35 PM 83.5 °F - 52.7 °F 34% 29.90 in 10.0 mi East 10.4 mph 17.3 mph N/A   Clear
8:55 PM 83.5 °F 85.3 °F 65.1 °F 54% 29.91 in 10.0 mi East 15.0 mph 21.9 mph N/A   Clear
9:15 PM 82.8 °F 84.7 °F 65.8 °F 56% 29.92 in 10.0 mi East 15.0 mph 21.9 mph N/A   Clear
9:35 PM 81.7 °F 83.8 °F 66.2 °F 59% 29.93 in 10.0 mi East 16.1 mph 23.0 mph N/A   Clear
9:55 PM 80.8 °F 82.9 °F 66.4 °F 61% 29.93 in 10.0 mi East 11.5 mph 21.9 mph N/A   Clear
10:15 PM 79.9 °F - 66.2 °F 63% 29.94 in 10.0 mi East 13.8 mph 18.4 mph N/A   Clear
10:35 PM 79.2 °F - 66.4 °F 65% 29.95 in 10.0 mi East 10.4 mph - N/A   Clear
11:15 PM 78.1 °F - 67.1 °F 69% 29.96 in 10.0 mi East 12.7 mph 16.1 mph N/A   Clear
11:35 PM 77.5 °F - 67.5 °F 71% 29.97 in 10.0 mi East 12.7 mph - N/A   Clear
11:55 PM 77.2 °F - 68.0 °F 73% 29.97 in 10.0 mi East 10.4 mph - N/A   Clear